Weather Roundup
Issued by NWS Corpus Christi, TX

Home | Current Version | Previous Version | Text Only | Print | Product List | Glossary On
Versions: 1 2 3 4 5 6 7 8 9 10 11 12 13 14 15 16 17 18 19 20 21 22 23 24 25 26 27 28 29 30 31 32 33 34 35 36 37 38 39 40 41 42 43 44 45 46 47 48 49 50
000
ASUS44 KCRP 041210
HRRCRP

SOUTH TEXAS REGIONAL WEATHER ROUNDUP
NATIONAL WEATHER SERVICE CORPUS CHRISTI TX
700 AM CDT SAT JUL 04 2015


TXZ229>244-041300-
...CORPUS CHRISTI AREA OBSERVATIONS...

CITY           SKY/WX    TMP DP  RH WIND       PRES   REMARKS
CORPUS CHRISTI MOCLDY    79  77  94 S12       29.96S
NAS CORPUS CHR CLEAR    N/A N/A N/A SE12      29.96R
ROCKPORT       PTCLDY    82  76  81 S6        29.97S
KINGSVILLE NAS CLEAR     78  77  96 S7        29.95S
ALICE          PTCLDY    77  75  93 SE6       29.96R
FALFURRIAS     CLEAR     77  74  91 SE6       29.95R
$$

...VICTORIA AREA OBSERVATIONS...

CITY           SKY/WX    TMP DP  RH WIND       PRES   REMARKS
VICTORIA         N/A     76  76 100 E5        30.00R FOG
BEEVILLE       FAIR     N/A N/A N/A E3        29.98S HAZE
PLEASANTON     CLOUDY    76  74  95 E3        29.98S FOG
SAN ANTONIO    CLOUDY    78  73  84 S8        30.01R
$$

...LAREDO AREA OBSERVATIONS...

CITY           SKY/WX    TMP DP  RH WIND       PRES   REMARKS
LAREDO         CLEAR     77  73  87 SE10      29.95S
COTULLA        CLOUDY    76  74  93 E5        29.96S
DEL RIO        CLOUDY    75  72  90 E9        29.94S
MCALLEN        CLEAR     79  74  84 SE10      29.94R
HEBBRONVILLE     N/A     75  73  92 SE8       29.96S
$$

...OTHER TEXAS OBSERVATIONS...

CITY           SKY/WX    TMP DP  RH WIND       PRES   REMARKS
BROWNSVILLE    PTCLDY    76  74  93 SE6       29.96R
HOUSTON        MOCLDY    79  76  90 CALM      30.00S
COL. STATION   CLOUDY    77  75  93 S6        30.00R
AUSTIN         CLOUDY    75  75 100 S5        30.00R
WACO           PTCLDY    75  72  90 S9        29.99R
FORT WORTH     MOCLDY    78  70  76 S8        29.96R
WICHITA FALLS  CLOUDY    73  68  84 SW8       29.94R
LUBBOCK        MOCLDY    69  62  78 SW7       30.04S
EL PASO        MOCLDY    78  60  53 E7        30.03S
$$

...MARINE OBSERVATIONS...

STATION/POSITION TIME  SKY/WX   TEMP    WIND        PRES    VSBY  WAVE   SWELL
                                AIR SEA DIR/SP/G                  HT/PER HT/PER
                 (UTC)          (F)     (DEG/KT/KT) (MB)    (MI)  (FT/S) (FT/S)
PORT ARANSAS     1100            81 81  160/ 12/ 14 1015.1R
BUOY 90 E PORT A NOT AVBL
BUOY 45 SE BAFFI 1150            83 83  170/ 16/ 17 1014.1R         5/ 7   2/13
BUOY 200 E PT IS 1150            84 84  130/ 14/ 16 1016.2R         3/ 5
BUOY 15 E GALVES 1150            84 83  200/ 14/ 16 1015.6R         3/ 6
$$



USA.gov is the U.S. government's official web portal to all federal, state and local government web resources and services.